When you browse on this site, cookies collect data to enhance your experience and personalize the content and advertising you see.
Visit our Privacy Policy to learn more. By continuing to use the site, you agree to this use of cookies and data.
  • In Deutschland
  • Länderverzeichnis
  • Für 7 Tage
  • Wassertemperatur
  • Satellitenkarten
  • Wetterkarte
  • Widgets
  • user-avatar
    Anmelden

    Stündliche Wetter Orscha

    Heute, 16 November, Freitag

    Zeit Temperatur Niederschläge Wind Luftdruck Luftfeuchtigkeit
    00:00 0°C° 0 mm 1 m/S 762 mmHg 93%
    01:00 0°C° 0 mm 1 m/S 762 mmHg 92%
    02:00 -2°C° 0 mm 1 m/S 762 mmHg 88%
    03:00 -2°C° 0 mm 1 m/S 763 mmHg 87%
    04:00 -2°C° 0 mm 1 m/S 763 mmHg 86%
    05:00 -5°C° 0 mm 2 m/S 763 mmHg 85%
    06:00 -5°C° 0 mm 2 m/S 763 mmHg 84%
    07:00 -5°C° 0 mm 2 m/S 764 mmHg 83%
    08:00 -5°C° 0 mm 2 m/S 764 mmHg 81%
    09:00 -4°C° 0 mm 2 m/S 764 mmHg 78%
    10:00 -3°C° 0 mm 2 m/S 764 mmHg 75%
    11:00 -2°C° 0 mm 2 m/S 765 mmHg 72%
    12:00 +1°C° 0 mm 1 m/S 765 mmHg 74%
    13:00 +1°C° 0 mm 1 m/S 765 mmHg 75%
    14:00 +1°C° 0 mm 1 m/S 765 mmHg 79%
    15:00 0°C° 0 mm 1 m/S 765 mmHg 79%
    16:00 -1°C° 0 mm 1 m/S 765 mmHg 79%
    17:00 -4°C° 0 mm 2 m/S 765 mmHg 79%
    18:00 -4°C° 0 mm 2 m/S 765 mmHg 78%
    19:00 -4°C° 0 mm 2 m/S 765 mmHg 77%
    20:00 -5°C° 0 mm 2 m/S 765 mmHg 76%
    21:00 -3°C° 0 mm 1 m/S 765 mmHg 75%
    22:00 -3°C° 0 mm 1 m/S 766 mmHg 73%
    23:00 -3°C° 0 mm 1 m/S 766 mmHg 72%

    Morgen, 17 November, Samstag

    Zeit Temperatur Niederschläge Wind Luftdruck Luftfeuchtigkeit
    00:00 -3°C° 0 mm 1 m/S 766 mmHg 70%
    01:00 -3°C° 0 mm 1 m/S 765 mmHg 68%
    02:00 -3°C° 0 mm 1 m/S 765 mmHg 66%
    03:00 -5°C° 0 mm 0 m/S 765 mmHg 65%
    04:00 -5°C° 0 mm 0 m/S 765 mmHg 64%
    05:00 -5°C° 0 mm 0 m/S 765 mmHg 62%
    06:00 -5°C° 0 mm 0 m/S 765 mmHg 62%
    07:00 -4°C° 0 mm 1 m/S 764 mmHg 62%
    08:00 -4°C° 0 mm 1 m/S 764 mmHg 61%
    09:00 -2°C° 0 mm 1 m/S 764 mmHg 61%
    10:00 -1°C° 0 mm 1 m/S 764 mmHg 61%
    11:00 0°C° 0 mm 1 m/S 764 mmHg 61%
    12:00 +1°C° 0 mm 1 m/S 763 mmHg 63%
    13:00 +1°C° 0 mm 1 m/S 762 mmHg 66%
    14:00 -1°C° 0 mm 2 m/S 762 mmHg 68%
    15:00 -2°C° 0 mm 2 m/S 761 mmHg 69%
    16:00 -2°C° 0 mm 2 m/S 761 mmHg 70%
    17:00 -3°C° 0 mm 2 m/S 760 mmHg 71%
    18:00 -4°C° 0 mm 3 m/S 760 mmHg 73%
    19:00 -2°C° 0 mm 3 m/S 759 mmHg 74%
    20:00 -2°C° 0 mm 3 m/S 758 mmHg 76%
    21:00 -2°C° 0 mm 3 m/S 758 mmHg 79%
    22:00 -4°C° 0 mm 3 m/S 757 mmHg 82%
    23:00 -4°C° 0 mm 3 m/S 756 mmHg 85%

    übermorgen, 18 November, Sonntag

    Zeit Temperatur Niederschläge Wind Luftdruck Luftfeuchtigkeit
    00:00 -3°C° 0 mm 4 m/S 755 mmHg 87%
    01:00 -3°C° 0 mm 4 m/S 755 mmHg 90%
    02:00 -3°C° 0 mm 4 m/S 754 mmHg 92%
    03:00 -2°C° 0.1 mm 4 m/S 753 mmHg 93%
    04:00 -2°C° 0.1 mm 4 m/S 752 mmHg 94%
    05:00 -1°C° 0.1 mm 4 m/S 751 mmHg 95%
    06:00 -1°C° 0.1 mm 4 m/S 751 mmHg 95%
    07:00 -1°C° 0.1 mm 4 m/S 750 mmHg 96%
    08:00 -1°C° 0.1 mm 4 m/S 750 mmHg 96%
    09:00 -1°C° 0.1 mm 4 m/S 749 mmHg 97%
    10:00 +1°C° 0.1 mm 3 m/S 749 mmHg 98%
    11:00 +1°C° 0.1 mm 3 m/S 749 mmHg 98%
    12:00 +1°C° 0.1 mm 3 m/S 748 mmHg 98%
    13:00 +1°C° 0.1 mm 3 m/S 748 mmHg 98%
    14:00 +1°C° 0.1 mm 3 m/S 748 mmHg 99%
    15:00 +1°C° 0.4 mm 3 m/S 747 mmHg 98%
    16:00 +1°C° 0.4 mm 3 m/S 747 mmHg 98%
    17:00 +1°C° 0.4 mm 3 m/S 747 mmHg 98%
    18:00 +1°C° 0.2 mm 3 m/S 747 mmHg 97%
    19:00 +1°C° 0.2 mm 3 m/S 747 mmHg 97%
    20:00 +1°C° 0.2 mm 3 m/S 747 mmHg 96%
    21:00 -1°C° 0.2 mm 4 m/S 747 mmHg 95%
    22:00 -1°C° 0.2 mm 4 m/S 747 mmHg 94%
    23:00 -1°C° 0.2 mm 4 m/S 747 mmHg 93%

    19 November, Montag

    Zeit Temperatur Niederschläge Wind Luftdruck Luftfeuchtigkeit
    00:00 -1°C° 0.1 mm 4 m/S 748 mmHg 94%
    01:00 -1°C° 0.1 mm 4 m/S 748 mmHg 94%
    02:00 -1°C° 0.1 mm 4 m/S 748 mmHg 94%
    03:00 0°C° 0.1 mm 3 m/S 748 mmHg 95%
    04:00 0°C° 0.1 mm 3 m/S 748 mmHg 95%
    05:00 0°C° 0.1 mm 3 m/S 749 mmHg 96%
    06:00 -1°C° 0 mm 3 m/S 749 mmHg 96%
    07:00 -1°C° 0 mm 3 m/S 749 mmHg 96%
    08:00 -1°C° 0 mm 3 m/S 750 mmHg 96%
    09:00 0°C° 0.1 mm 3 m/S 750 mmHg 96%
    10:00 0°C° 0.1 mm 3 m/S 750 mmHg 96%
    11:00 0°C° 0.1 mm 3 m/S 751 mmHg 96%
    12:00 0°C° 0.2 mm 3 m/S 751 mmHg 96%
    13:00 0°C° 0.2 mm 3 m/S 751 mmHg 97%
    14:00 0°C° 0.2 mm 3 m/S 751 mmHg 97%
    15:00 0°C° 0.1 mm 3 m/S 751 mmHg 96%
    16:00 0°C° 0.1 mm 3 m/S 751 mmHg 96%
    17:00 0°C° 0.1 mm 3 m/S 751 mmHg 95%
    18:00 -1°C° 0.1 mm 3 m/S 751 mmHg 95%
    19:00 -1°C° 0.1 mm 3 m/S 752 mmHg 95%
    20:00 -1°C° 0.1 mm 3 m/S 752 mmHg 95%
    21:00 -1°C° 0.1 mm 3 m/S 752 mmHg 95%
    22:00 -2°C° 0.1 mm 3 m/S 752 mmHg 95%
    23:00 -2°C° 0.1 mm 2 m/S 752 mmHg 96%

    20 November, Dienstag

    Zeit Temperatur Niederschläge Wind Luftdruck Luftfeuchtigkeit
    00:00 -2°C° 0.1 mm 3 m/S 752 mmHg 95%
    01:00 -2°C° 0.1 mm 3 m/S 752 mmHg 95%
    02:00 -2°C° 0.1 mm 3 m/S 753 mmHg 95%
    03:00 -4°C° 0 mm 3 m/S 752 mmHg 94%
    04:00 -4°C° 0 mm 3 m/S 752 mmHg 93%
    05:00 -5°C° 0 mm 3 m/S 752 mmHg 92%
    06:00 -4°C° 0 mm 2 m/S 752 mmHg 91%
    07:00 -5°C° 0 mm 2 m/S 752 mmHg 90%
    08:00 -5°C° 0 mm 2 m/S 752 mmHg 89%
    09:00 -5°C° 0 mm 2 m/S 752 mmHg 87%
    10:00 -4°C° 0 mm 2 m/S 752 mmHg 85%
    11:00 -3°C° 0 mm 2 m/S 752 mmHg 83%
    12:00 -3°C° 0 mm 2 m/S 752 mmHg 84%
    13:00 -2°C° 0 mm 2 m/S 751 mmHg 86%
    14:00 -2°C° 0 mm 2 m/S 751 mmHg 88%
    15:00 -2°C° 0 mm 2 m/S 751 mmHg 90%
    16:00 -3°C° 0 mm 2 m/S 751 mmHg 92%
    17:00 -3°C° 0 mm 2 m/S 751 mmHg 94%
    18:00 -3°C° 0 mm 2 m/S 750 mmHg 94%
    19:00 -3°C° 0 mm 2 m/S 750 mmHg 95%
    20:00 -2°C° 0 mm 2 m/S 750 mmHg 95%
    21:00 -2°C° 0 mm 2 m/S 750 mmHg 95%
    22:00 -2°C° 0 mm 2 m/S 750 mmHg 95%
    23:00 -2°C° 0 mm 2 m/S 750 mmHg 95%

    21 November, Mittwoch

    Zeit Temperatur Niederschläge Wind Luftdruck Luftfeuchtigkeit
    00:00 -2°C° 0 mm 2 m/S 750 mmHg 95%
    01:00 -2°C° 0 mm 2 m/S 750 mmHg 95%
    02:00 -2°C° 0 mm 2 m/S 750 mmHg 95%
    03:00 -2°C° 0 mm 3 m/S 750 mmHg 94%
    04:00 -2°C° 0 mm 3 m/S 750 mmHg 94%
    05:00 -2°C° 0 mm 3 m/S 750 mmHg 94%
    06:00 -3°C° 0 mm 4 m/S 750 mmHg 93%
    07:00 -3°C° 0 mm 4 m/S 750 mmHg 93%
    08:00 -3°C° 0 mm 4 m/S 750 mmHg 92%
    09:00 -2°C° 0 mm 4 m/S 750 mmHg 92%
    10:00 -2°C° 0 mm 5 m/S 750 mmHg 92%
    11:00 -2°C° 0 mm 5 m/S 750 mmHg 92%
    12:00 -2°C° 0 mm 5 m/S 750 mmHg 91%
    13:00 -1°C° 0 mm 5 m/S 750 mmHg 91%
    14:00 -1°C° 0 mm 5 m/S 750 mmHg 91%
    15:00 -1°C° 0 mm 5 m/S 750 mmHg 91%
    16:00 -2°C° 0 mm 6 m/S 750 mmHg 90%
    17:00 -2°C° 0 mm 6 m/S 750 mmHg 90%
    18:00 -2°C° 0 mm 6 m/S 750 mmHg 89%
    19:00 -3°C° 0 mm 6 m/S 750 mmHg 89%
    20:00 -3°C° 0 mm 6 m/S 750 mmHg 89%
    21:00 -3°C° 0 mm 6 m/S 750 mmHg 88%
    22:00 -3°C° 0 mm 6 m/S 750 mmHg 88%
    23:00 -3°C° 0 mm 6 m/S 750 mmHg 88%
    Mehr zeigen